Victoria, British Columbia

12:54 AM PDT on May 25, 2018 (GMT -0700)
Victoria International

Weather History for CYYJ - November, 2012

Change the Weather History Date:

Friday, November 30, 2012

  Actual Average Record
Temperature  
Mean Temperature 50 °F -  
Max Temperature 51 °F 44 °F 57 °F (2002)
Min Temperature 48 °F 33 °F 20 °F (2014)
Degree Days  
Heating Degree Days 16    
Moisture  
Dew Point 47 °F    
Average Humidity 92    
Maximum Humidity 100    
Minimum Humidity 76    
Precipitation  
Precipitation 0.31 in 0.20 in - ()
Sea Level Pressure  
Sea Level Pressure 29.35 in    
Wind  
Wind Speed 9 mph ()    
Max Wind Speed 23 mph    
Max Gust Speed 34 mph    
Visibility 14.9 miles    
Events Rain    
Averages and records for this station are not official NWS values.
T = Trace of Precipitation, MM = Missing Value Source: Averaged Metar Reports

Daily Weather History Graph

Daily Weather History Graph

Search for Another Location

Airport or City:

Astronomy

Nov. 30, 2012 Rise Set
Actual Time 7:44 AM PST 4:20 PM PST
Civil Twilight 7:08 AM PST 4:56 PM PST
Nautical Twilight 6:28 AM PST 5:36 PM PST
Astronomical Twilight 5:51 AM PST 6:13 PM PST
Moon 6:21 PM PST (11/30) 9:19 AM PST (11/30)
Length of Visible Light 9h 48m
Length of Day
8h 36m
Waning Gibbous, 96% of the Moon is Illuminated
Nov 30
Waning Gibbous
Dec 6
Last Quarter
Dec 13
New
Dec 19
First Quarter
Dec 28
Full

Hourly Weather History & Observations

Time (PST) Temp. Dew Point Humidity Pressure Visibility Wind Dir Wind Speed Gust Speed Precip Events Conditions
12:00 AM 50.0 °F 44.6 °F 82% 29.40 in 20.0 mi SSE 9.2 mph - N/A   Overcast
1:00 AM 50.0 °F 42.8 °F 76% 29.37 in 30.0 mi SE 6.9 mph - N/A   Overcast
2:00 AM 50.0 °F 42.8 °F 76% 29.36 in 30.0 mi SE 6.9 mph - N/A   Overcast
3:00 AM 50.0 °F 44.6 °F 82% 29.33 in 30.0 mi SE 19.6 mph - N/A   Overcast
3:40 AM 50.0 °F - N/A% - 30.0 mi SSE 23.0 mph 34.5 mph N/A Rain Light Rain
4:00 AM 49 °F 46 °F 87% 29.33 in 10 mi SSE 17.3 mph - - Rain Light Rain
4:00 AM 48.2 °F 46.4 °F 93% 29.33 in 10.0 mi SSE 15.0 mph 25.3 mph N/A Rain Light Rain
4:17 AM 48.2 °F - N/A% - 10.0 mi SSE 16.1 mph 23.0 mph N/A Rain Light Rain
5:00 AM 48.2 °F 46.4 °F 93% 29.32 in 12.0 mi SE 13.8 mph - N/A Rain Light Rain
5:27 AM 48.2 °F - N/A% - 15.0 mi SSE 10.4 mph - N/A   Overcast
6:00 AM 48.2 °F 46.4 °F 93% 29.31 in 20.0 mi SE 10.4 mph - N/A   Mostly Cloudy
7:00 AM 50.0 °F 46.4 °F 87% 29.30 in 20.0 mi SSE 12.7 mph - N/A   Mostly Cloudy
7:04 AM 50.0 °F - N/A% - 20.0 mi SSE 16.1 mph - N/A Rain Light Rain
7:30 AM 48.2 °F - N/A% - 7.0 mi South 10.4 mph 18.4 mph N/A Rain Light Rain
7:49 AM 48.2 °F - N/A% - 8.0 mi South 9.2 mph - N/A Rain Light Rain
8:00 AM 48.2 °F 46.4 °F 93% 29.34 in 8.0 mi South 2.3 mph - N/A Rain Light Rain
9:00 AM 48.2 °F 46.4 °F 93% 29.34 in 15.0 mi SE 11.5 mph - N/A Rain Light Rain
10:00 AM 48 °F 47 °F 96% 29.39 in 4 mi SW 5.8 mph - - Rain Heavy Rain
10:00 AM 48.2 °F 48.2 °F 100% 29.39 in 4.0 mi SW 5.8 mph - N/A Rain Heavy Rain
11:00 AM 48.2 °F 48.2 °F 100% 29.37 in 15.0 mi East 5.8 mph - N/A Rain Light Rain
12:00 PM 50.0 °F 48.2 °F 94% 29.36 in 15.0 mi East 5.8 mph - N/A Rain Light Rain
1:00 PM 48.2 °F 48.2 °F 100% 29.36 in 15.0 mi SW 3.5 mph - N/A Rain Light Rain
2:00 PM 50.0 °F 48.2 °F 94% 29.36 in 15.0 mi SE 9.2 mph - N/A   Mostly Cloudy
3:00 PM 50.0 °F 48.2 °F 94% 29.36 in 30.0 mi SE 9.2 mph - N/A   Mostly Cloudy
4:00 PM 49 °F 47 °F 91% 29.37 in 28 mi SE 5.8 mph - -   Partly Cloudy
4:00 PM 48.2 °F 46.4 °F 93% 29.37 in 30.0 mi SE 6.9 mph - N/A   Overcast
4:49 PM 50.0 °F - N/A% - 20.0 mi SSE 6.9 mph - N/A Rain Light Rain
5:00 PM 50.0 °F 48.2 °F 94% 29.38 in 15.0 mi SE 5.8 mph - N/A Rain Light Rain
6:00 PM 48.2 °F 46.4 °F 93% 29.38 in 15.0 mi ESE 2.3 mph - N/A Rain Light Rain
7:00 PM 48.2 °F 48.2 °F 100% 29.36 in 20.0 mi East 8.1 mph - N/A Rain Light Rain
7:32 PM 48.2 °F - N/A% - 30.0 mi East 5.8 mph - N/A   Mostly Cloudy
8:00 PM 48.2 °F 46.4 °F 93% 29.35 in 30.0 mi ESE 5.8 mph - N/A   Mostly Cloudy
8:52 PM 48.2 °F - N/A% - 30.0 mi East 3.5 mph - N/A Rain Light Rain
9:00 PM 48.2 °F 46.4 °F 93% 29.33 in 30.0 mi ESE 5.8 mph - N/A Rain Light Rain
9:25 PM 48.2 °F - N/A% - 20.0 mi East 4.6 mph - N/A   Overcast
10:00 PM 48 °F 46 °F 92% 29.33 in 19 mi SE 6.9 mph - - Rain Light Rain
10:00 PM 48.2 °F 46.4 °F 93% 29.33 in 20.0 mi SE 9.2 mph - N/A   Overcast
10:09 PM 48.2 °F - N/A% - 20.0 mi SE 8.1 mph - N/A Rain Light Rain
10:29 PM 48.2 °F - N/A% - 20.0 mi SSE 6.9 mph - N/A   Overcast
11:00 PM 48.2 °F 46.4 °F 93% 29.34 in 20.0 mi SSE 12.7 mph - N/A   Overcast